User: anonymous   Login
Location: Unspecified
(0.0000°N, 0.0000°E)
Time: 19:23:20
(UTC+00:00)
Language:

ION-MK02-SCV013 - Orbit

View from above orbital plane
View from above orbital plane
View from above satellite
View from above satellite

Ground track
Ground track

The orbit is defined by the following mean orbital elements,

1 58300U          26145.62496638 +.00000000 +00000-0 +11401-3 0 00001
2 58300  97.6171 201.0027 0097222 272.8578  86.1525 15.05001839    01
Epoch (UTC): 25 May 2026 14:59:57
Eccentricity: 0.0097222
inclination: 97.6171°
perigee height: 484 km
apogee height: 619 km
right ascension of ascending node: 201.0027°
argument of perigee: 272.8578°
revolutions per day: 15.05001839
mean anomaly at epoch: 86.1525°

The dashed part of the orbit path shows where the satellite is in the earth's shadow,  

DLR